Theta_e
319 318 317 315 316 316 316 316 315 314 315 315 316 316 316 316 316 316 316 315 316 317 319 320 320 320 320 320 319 319 319 319 319 319 319 323 324 323 323 323 321 319 320 323 326 324 325 329 330 328 329 329 330 329 329 330 329 334 345 346 340 342 341 337 337 335 336 338 334 333 334 335 336 334 334 334 334 334 334 333 333 332 330 329 330 329 326 322
319 318 317 316 316 316 316 317 316 315 315 316 316 316 316 317 316 316 316 316 316 317 317 318 319 320 320 321 320 321 320 320 320 320 322 325 324 323 323 322 321 320 322 325 326 325 327 330 329 330 330 330 330 329 330 329 330 338 346 345 339 341 339 333 334 333 333 335 334 334 334 335 335 334 334 335 335 334 333 332 331 330 329 329 328 327 323 320
318 318 317 316 315 317 317 317 316 315 315 316 316 317 317 317 317 316 316 316 316 316 317 317 318 318 319 319 319 321 321 322 323 323 326 326 325 325 324 324 323 323 325 326 327 326 328 330 330 330 330 330 330 330 331 330 331 333 341 346 339 336 335 332 332 332 333 333 333 335 335 334 334 333 334 335 334 333 332 330 329 329 329 329 327 325 322 316
317 317 317 316 315 316 317 316 316 316 316 316 317 317 317 317 317 316 316 317 316 316 317 317 317 318 318 318 320 320 322 326 327 326 327 327 327 327 326 326 325 326 327 326 327 326 327 330 330 330 331 332 330 330 332 331 332 331 338 346 336 333 335 333 332 332 332 332 334 335 334 334 334 334 334 334 335 335 330 327 327 328 328 328 326 325 320 312
316 317 317 316 315 316 317 316 316 316 316 316 317 317 318 317 317 317 317 317 317 317 317 317 317 317 318 319 321 320 324 330 328 326 327 328 328 328 327 327 327 327 327 328 328 328 329 330 330 330 331 333 333 333 332 330 333 333 335 337 333 333 335 333 333 333 333 333 334 334 333 334 333 334 334 333 337 336 328 322 323 325 326 327 326 324 322 319
315 316 316 316 315 315 317 317 316 316 316 316 317 317 318 318 317 317 317 318 317 317 317 317 318 318 318 318 320 321 325 330 327 326 329 328 329 328 328 328 328 327 327 328 328 329 330 330 330 329 330 333 336 336 332 330 333 337 334 331 332 333 333 333 333 332 332 333 334 333 333 333 333 334 334 332 334 332 325 322 324 325 327 327 326 325 325 325
315 315 316 316 315 315 316 317 316 316 315 315 317 317 318 318 318 317 317 318 317 317 317 317 318 318 318 318 319 322 325 327 326 328 329 328 329 328 328 328 328 327 327 328 328 330 329 330 330 328 333 335 335 335 333 330 331 336 335 331 332 333 333 333 333 332 332 333 333 333 332 332 334 335 333 331 331 331 327 325 326 326 327 326 326 327 327 326
313 314 315 316 316 315 316 317 316 315 315 315 316 317 318 318 318 318 318 318 318 318 318 317 318 318 318 319 319 322 325 326 327 328 328 329 329 328 329 328 328 328 328 329 328 329 329 330 330 329 335 335 333 334 333 333 332 334 334 331 332 333 333 333 333 333 332 333 332 332 332 333 334 333 331 330 330 330 328 326 327 326 326 327 327 327 327 327
312 314 315 315 316 315 315 317 316 315 315 314 315 317 318 319 318 319 318 318 318 318 318 318 318 318 319 318 320 324 326 327 328 328 329 329 328 329 329 328 329 328 328 329 328 329 329 329 329 331 334 332 332 334 332 336 335 331 332 331 331 333 332 333 334 333 332 332 332 333 333 334 332 332 332 330 329 328 327 327 328 327 327 327 327 328 327 326
311 313 315 315 316 315 315 317 316 316 315 314 315 316 318 319 319 319 319 319 319 319 318 318 319 318 319 318 321 325 326 326 327 327 329 329 329 329 329 328 329 328 328 329 329 329 329 329 329 330 331 331 332 333 331 335 334 329 330 331 331 333 332 333 333 332 332 331 332 335 336 334 331 334 336 331 329 329 328 329 328 327 328 328 328 328 328 327
311 313 315 315 315 315 315 316 317 316 315 314 314 316 318 319 319 319 319 320 319 318 319 318 319 319 319 319 321 324 325 326 326 327 328 329 329 329 329 329 328 329 329 328 329 329 329 330 330 329 330 331 331 331 330 331 331 329 330 330 331 332 331 332 333 331 331 332 332 334 335 334 332 336 337 331 329 330 329 330 329 328 328 328 329 328 328 328
311 314 315 315 315 315 315 316 317 316 315 314 313 315 317 319 319 319 320 320 319 319 318 318 319 319 319 320 321 323 324 325 326 327 329 329 329 329 329 328 329 329 329 329 329 329 330 329 329 329 329 330 331 332 331 330 330 330 331 331 330 332 333 332 332 332 331 332 332 333 336 335 335 337 334 331 331 330 330 330 330 328 328 328 329 328 327 327
311 313 315 315 315 315 314 316 317 316 316 314 313 314 317 318 319 319 319 319 320 319 318 318 319 319 319 320 322 323 323 326 327 327 329 329 329 329 329 329 329 329 329 329 330 329 330 329 329 329 329 329 331 332 331 330 330 331 332 334 332 330 333 332 330 332 330 332 331 334 340 338 336 335 332 331 331 330 331 331 331 328 328 329 329 329 327 328
312 313 314 315 315 315 314 316 317 317 316 314 314 314 316 318 318 319 319 319 320 319 319 319 319 319 319 321 323 323 323 325 328 329 329 329 329 329 329 329 329 329 329 330 330 329 329 329 329 329 330 330 329 331 335 334 335 338 333 335 340 333 331 331 330 331 331 332 331 334 342 340 337 335 332 331 330 331 332 331 331 329 329 329 329 329 328 328
313 312 314 315 315 315 314 316 318 318 316 314 313 314 316 317 318 318 318 319 319 319 319 319 319 320 320 321 323 324 324 325 327 329 329 329 329 328 329 330 329 329 330 329 330 329 329 328 329 331 331 330 332 336 342 343 343 347 339 334 340 335 331 332 329 331 331 331 330 332 340 339 336 335 333 332 331 332 332 331 332 330 331 330 329 330 329 329
316 313 313 315 315 315 314 316 318 317 316 315 313 314 316 317 318 318 318 318 318 318 319 319 319 320 320 322 323 324 324 325 326 327 328 328 328 329 329 329 330 330 329 330 330 329 329 329 330 332 331 332 340 344 346 345 341 345 345 340 339 334 331 332 329 329 329 330 329 332 340 339 335 334 333 333 332 332 333 331 332 332 331 330 329 329 328 329
318 314 313 315 315 315 315 316 318 317 316 315 313 314 315 316 317 318 318 318 318 318 318 318 319 320 321 322 322 324 324 324 324 325 328 327 328 330 329 329 330 329 329 330 330 330 330 330 331 334 336 338 345 347 342 340 337 337 342 341 339 337 332 330 330 329 327 330 331 333 340 339 335 334 333 333 333 333 333 332 332 332 331 330 330 329 328 329
318 316 313 314 316 315 315 316 318 317 316 315 313 313 315 316 317 317 317 317 317 317 318 319 320 321 322 322 323 323 324 324 324 325 327 327 329 330 329 330 330 330 330 330 330 331 330 330 333 340 344 342 346 348 340 337 340 340 341 339 336 337 334 330 331 330 328 331 332 333 336 336 335 334 333 334 334 333 333 333 333 332 331 330 330 329 329 329
318 318 315 314 316 315 315 317 318 317 319 319 315 314 316 316 316 317 318 319 319 319 321 322 322 323 323 323 323 323 323 324 325 326 326 327 329 329 330 330 329 330 330 332 332 330 332 333 334 339 342 341 343 345 341 340 344 345 345 343 338 337 334 330 330 329 328 332 333 333 335 336 335 333 333 333 334 334 333 333 333 332 332 331 331 330 329 330
318 318 315 314 316 315 315 317 317 319 322 323 321 320 320 320 323 324 322 323 323 323 323 322 322 322 321 322 323 323 323 324 325 326 326 327 327 328 330 329 329 331 332 338 335 327 335 341 339 340 339 341 342 340 341 340 341 345 344 340 338 338 335 329 327 328 329 333 333 332 334 335 334 332 332 333 333 333 332 332 333 332 332 332 332 331 331 331
318 318 316 315 316 315 316 318 318 320 323 323 323 323 322 322 325 326 324 324 324 325 325 323 323 323 322 322 322 323 323 323 324 325 326 326 327 329 329 330 334 335 332 335 333 332 342 343 338 341 338 337 339 338 340 337 337 343 342 339 336 334 333 329 328 329 329 333 333 332 333 334 333 332 331 332 332 332 331 331 332 332 333 333 333 332 332 332
318 317 316 315 316 316 316 318 320 321 323 322 322 322 322 322 324 324 323 324 324 324 325 324 324 325 323 322 323 323 322 323 324 324 326 325 326 328 327 332 339 339 334 334 340 345 348 344 338 338 335 333 334 336 337 336 338 341 339 339 334 330 331 327 328 331 330 334 333 331 333 333 331 331 330 331 331 331 331 332 332 332 333 333 333 333 332 332
319 318 316 315 316 316 316 320 321 322 322 322 322 321 322 322 323 323 322 324 325 324 324 324 324 323 323 323 324 323 322 323 324 324 327 325 326 328 327 332 339 339 336 338 345 342 339 343 340 332 330 333 335 334 336 336 337 338 340 340 331 332 340 332 328 330 329 333 333 330 332 332 330 329 330 330 329 330 331 331 332 332 333 333 333 333 332 332
321 319 316 315 316 316 319 321 322 323 322 322 322 321 322 323 323 322 322 325 325 324 323 323 323 322 323 324 323 323 323 322 323 324 326 325 326 327 327 330 335 337 336 337 341 336 335 340 334 328 331 336 337 336 339 338 334 336 344 343 333 333 342 338 332 333 334 335 332 332 331 329 332 331 330 330 327 329 330 329 331 331 332 332 332 332 333 332
321 320 318 316 315 317 320 323 323 323 323 322 322 322 322 323 322 322 325 327 326 325 323 321 323 323 322 324 323 322 323 322 323 324 325 325 325 326 326 328 331 337 335 333 337 337 337 333 328 331 332 334 340 339 338 339 337 339 341 342 338 334 335 337 338 340 343 340 333 336 334 331 337 335 331 333 329 327 329 328 329 331 332 331 332 333 332 332
320 321 320 317 316 316 318 323 323 322 324 323 322 323 323 322 322 323 328 334 330 326 323 321 322 323 322 323 322 322 323 323 323 325 325 324 325 325 326 327 330 334 333 331 335 337 335 330 328 333 332 335 343 338 333 337 342 340 337 339 342 339 339 342 345 344 341 338 334 336 336 333 338 339 336 337 332 329 329 328 328 329 330 330 331 333 333 332
320 321 321 319 316 315 316 319 319 319 323 323 322 323 322 320 321 323 328 332 331 326 322 322 321 322 322 322 323 324 323 323 323 324 325 324 324 324 326 328 328 329 329 329 332 332 333 332 329 331 336 340 342 335 330 339 344 337 334 339 341 342 343 342 346 346 341 340 338 341 342 336 336 340 343 339 333 332 332 330 329 328 328 330 332 333 333 332
320 319 321 321 318 316 315 315 316 318 320 322 322 321 320 319 322 327 329 324 323 325 323 321 321 321 322 322 322 324 323 323 323 323 324 323 324 323 325 326 326 328 328 330 333 331 331 335 331 333 340 339 340 339 331 335 342 335 333 337 335 337 340 341 344 345 345 342 335 340 345 338 337 345 349 342 333 332 334 333 331 328 328 331 332 333 333 332
321 320 320 322 320 317 315 315 318 319 319 319 319 319 318 320 324 330 333 326 322 325 324 319 321 321 321 322 322 322 322 322 322 323 324 323 324 323 324 324 324 326 325 328 335 332 328 331 329 335 341 336 337 337 331 334 338 332 331 334 335 337 339 343 346 345 349 344 333 337 342 338 340 347 350 341 334 338 343 341 335 328 327 331 332 333 333 333
322 321 319 321 322 318 315 316 319 321 321 318 318 319 318 325 333 327 322 326 327 325 323 319 321 321 321 322 321 322 321 321 322 323 323 323 323 322 324 323 322 327 329 328 332 329 327 328 326 332 334 331 331 330 329 334 333 330 335 336 336 341 345 350 350 347 346 341 335 336 338 338 337 342 347 339 333 342 349 343 336 329 327 330 333 333 333 333
322 321 320 320 321 320 318 316 317 319 320 319 318 319 318 328 340 328 317 324 329 325 321 320 321 322 321 322 322 322 321 321 322 322 323 324 323 322 323 323 326 333 336 332 330 327 325 327 326 328 328 327 330 331 329 331 330 333 342 340 333 337 346 350 348 346 341 335 336 337 337 338 337 341 349 344 339 343 344 342 339 333 328 329 332 333 333 334
322 321 321 320 320 322 319 315 316 316 318 319 316 320 327 325 325 326 325 326 329 328 322 321 322 321 322 322 322 322 321 322 321 321 323 323 324 325 324 327 335 336 330 328 330 327 329 332 328 325 327 328 332 334 330 329 333 334 339 342 337 335 339 340 338 339 338 334 335 335 333 334 337 341 345 344 343 342 337 337 337 331 328 329 332 332 333 334
322 322 321 321 321 323 320 315 316 315 316 317 314 326 339 328 322 329 328 326 332 331 322 321 322 321 321 322 322 321 321 322 322 321 322 323 324 325 323 326 334 335 330 330 329 326 327 330 327 325 328 327 331 334 329 328 334 333 334 339 340 338 336 334 332 331 334 334 333 334 332 332 336 340 342 343 339 334 330 329 329 329 328 329 331 332 333 334
322 322 321 322 322 322 320 318 317 317 315 315 321 333 332 324 331 336 325 323 330 326 320 322 321 320 321 321 322 321 321 322 322 321 321 322 322 324 324 323 323 330 337 332 327 329 328 326 327 327 328 326 328 332 331 332 333 332 336 337 337 341 340 336 336 336 334 333 334 332 329 334 338 337 340 339 330 327 328 328 329 329 328 328 329 332 333 333
321 322 321 322 322 322 322 321 319 316 314 318 331 338 326 321 334 338 332 331 327 321 324 325 321 320 321 321 322 321 321 321 321 321 321 321 323 326 326 324 321 326 333 329 326 328 326 326 329 326 325 326 325 326 328 330 329 328 332 331 330 338 343 338 337 341 340 334 334 332 328 336 343 336 334 333 328 329 329 327 329 328 328 329 328 331 332 331
321 321 321 322 323 322 322 323 319 313 315 324 333 334 329 328 333 334 334 332 325 324 327 325 323 320 319 320 322 321 321 322 322 321 321 321 323 327 326 324 323 325 336 340 333 326 322 325 328 322 322 326 323 323 324 325 327 328 328 330 330 331 338 338 331 333 338 333 331 332 332 336 339 337 336 335 334 334 330 327 328 328 328 329 328 329 330 330
321 321 321 323 324 324 324 324 320 314 318 327 332 334 335 334 330 328 328 325 325 328 326 326 328 322 319 320 322 323 320 321 321 320 324 325 323 327 325 322 323 324 332 339 332 329 331 332 331 325 322 324 323 323 324 323 327 330 328 332 332 325 332 342 334 329 332 332 330 331 334 334 332 336 340 336 336 337 334 329 327 328 328 328 329 329 329 330
320 321 321 324 325 324 324 324 321 318 320 328 336 339 337 333 327 325 324 324 326 327 326 327 329 325 323 321 323 325 319 321 323 321 325 325 321 325 325 321 324 323 322 326 326 331 336 331 330 330 324 324 325 323 325 326 326 328 327 329 331 328 329 333 332 330 328 329 331 328 329 332 333 338 338 332 335 338 335 333 331 330 328 326 329 329 327 329
319 320 321 325 325 323 324 323 322 320 322 330 336 335 329 328 326 323 323 323 324 325 328 330 328 327 326 323 325 326 320 322 325 322 322 322 321 325 323 322 325 321 319 324 326 332 338 330 326 330 327 325 328 328 330 332 326 325 326 325 331 338 336 330 329 334 332 331 333 327 325 332 340 344 339 330 335 337 333 335 333 329 327 327 328 328 328 329
319 320 322 325 325 324 324 322 321 323 328 333 335 332 325 324 324 322 322 323 323 325 331 331 327 327 329 327 327 327 323 323 323 322 323 323 323 324 322 324 325 322 322 323 327 335 338 329 325 332 332 324 324 329 333 333 326 326 328 324 326 332 333 331 328 332 336 337 338 332 326 334 342 341 338 333 333 336 334 336 332 327 327 328 328 328 329 329
318 320 323 323 324 324 323 322 322 326 331 331 330 328 323 321 322 322 322 322 323 323 326 327 325 327 329 328 329 328 326 324 321 322 324 321 324 326 324 324 322 324 327 327 332 336 334 330 329 331 329 325 329 332 331 329 325 330 333 330 333 333 330 330 326 329 337 337 337 337 330 333 338 333 333 335 333 332 330 329 328 327 328 329 329 329 329 329
318 321 323 323 325 323 323 326 326 326 328 328 326 324 322 320 321 321 321 322 323 323 323 325 326 327 328 329 330 329 327 328 324 323 324 321 326 330 326 322 321 325 329 330 329 330 339 347 335 326 325 325 328 327 324 325 325 329 332 331 336 337 336 339 331 327 332 329 330 337 333 335 340 335 333 332 329 327 326 325 327 327 329 329 329 330 329 330
318 321 322 322 323 321 323 329 330 327 327 325 323 323 322 322 321 322 322 322 322 323 324 326 325 326 328 328 329 327 327 329 328 324 324 325 325 325 323 322 322 325 330 333 330 329 340 344 329 330 343 340 332 335 334 332 328 326 328 330 329 329 337 347 341 334 333 327 328 333 331 338 346 337 329 326 324 326 326 327 329 328 329 330 328 329 330 330
316 317 319 320 321 320 323 329 333 335 332 326 324 324 323 323 323 324 325 324 324 324 324 325 323 323 326 327 327 327 325 327 328 327 327 328 324 323 323 322 323 327 332 335 335 333 334 335 333 339 347 341 337 344 341 335 335 332 331 332 328 327 333 333 332 338 335 326 331 337 336 343 347 333 327 327 327 329 328 327 330 330 330 330 329 329 330 329
317 319 319 319 320 321 323 327 330 333 332 327 326 326 324 324 324 324 326 326 326 324 323 325 323 321 323 323 324 326 325 326 329 328 328 328 324 323 324 324 325 330 332 329 329 333 336 345 354 348 339 333 332 334 331 328 333 333 331 330 324 326 331 325 327 340 336 324 333 343 338 339 338 331 331 334 333 333 331 329 330 330 329 330 330 329 330 331
318 322 323 321 321 321 322 323 323 326 330 328 327 328 326 326 326 324 326 326 325 324 322 323 323 321 324 325 325 327 326 326 327 327 328 327 325 325 325 325 327 327 330 327 324 337 343 345 355 353 343 339 337 335 332 328 326 326 326 327 323 325 331 330 330 338 336 328 331 337 333 330 330 331 334 336 336 337 334 331 330 331 331 331 331 330 331 331
316 321 323 323 324 324 324 324 322 324 327 326 328 330 327 327 326 324 325 325 324 324 322 322 323 323 326 327 327 329 330 328 328 327 327 326 326 327 325 327 330 329 330 324 321 340 347 333 334 344 339 334 333 330 329 326 323 323 323 324 326 325 327 332 334 333 334 330 328 332 335 331 329 332 334 334 336 337 334 331 330 331 331 331 332 332 332 332
316 319 320 321 324 325 326 326 324 324 325 325 328 330 326 325 326 325 326 325 324 325 323 326 331 328 326 326 326 331 333 331 332 331 329 327 327 329 328 328 331 331 329 327 328 346 353 331 325 334 333 331 332 328 327 327 323 324 324 324 328 327 326 332 337 334 336 336 333 337 339 333 330 333 333 332 333 332 331 331 331 330 330 331 332 332 332 333
316 318 318 319 321 323 323 323 323 324 326 326 329 331 326 327 327 324 325 326 327 326 321 325 334 330 325 324 324 330 331 327 330 333 332 331 331 333 332 329 328 326 327 334 335 339 346 335 329 336 337 337 337 328 327 328 324 324 326 327 330 328 327 333 334 332 336 337 337 342 339 333 332 333 330 328 328 328 329 331 331 330 330 331 331 330 330 331
316 317 317 318 318 319 320 321 322 324 326 325 328 331 327 326 327 325 324 325 328 330 324 324 330 328 324 325 322 327 329 326 329 331 330 332 335 339 337 333 331 326 328 340 338 332 336 335 339 346 340 338 341 332 329 329 325 327 330 330 333 330 328 333 334 333 336 332 333 339 337 332 331 329 327 327 327 328 330 330 331 332 331 331 330 330 330 330
315 316 316 316 317 318 320 321 321 323 326 326 328 330 328 325 325 322 324 325 325 328 326 326 331 331 331 333 329 327 328 328 330 329 327 328 330 333 334 332 332 330 333 339 337 338 343 338 340 347 336 333 341 333 329 334 332 334 336 330 330 330 327 329 331 336 341 335 333 334 332 332 333 328 327 328 327 328 329 329 331 331 331 332 331 331 331 331
315 316 316 317 318 318 319 320 320 321 326 326 325 326 324 322 321 321 325 327 324 325 325 326 331 333 334 336 333 330 328 327 329 329 328 327 325 326 329 327 329 332 337 341 338 343 352 341 339 347 336 334 343 337 336 342 334 334 342 336 329 331 329 329 331 336 339 338 339 338 333 335 336 331 331 332 329 328 328 329 330 330 330 331 331 331 331 330
Wind_Speed
18 18 16 14 12 10 8 7 6 5 4 4 5 5 5 5 5 5 5 5 5 5 4 3 2 2 4 6 7 8 9 10 11 14 15 9 5 8 9 9 9 8 8 5 5 8 5 3 3 5 4 4 4 4 5 4 4 3 3 3 2 1 2 3 4 4 3 3 4 7 8 5 4 4 8 9 9 11 9 7 8 8 10 11 9 6 5 5
17 17 16 14 12 9 8 7 6 5 4 4 4 4 4 4 4 4 5 5 4 4 4 4 3 3 4 5 6 7 8 10 12 15 12 6 6 8 7 7 7 7 6 4 4 6 5 3 1 3 7 8 5 4 4 3 4 3 3 3 1 3 2 3 7 7 4 6 7 8 8 7 7 9 9 5 6 10 8 7 10 12 12 10 8 5 4 4
17 17 16 14 12 10 8 6 6 5 4 4 4 4 4 3 3 4 4 4 4 4 5 4 5 5 6 7 7 6 7 8 10 11 7 2 3 3 3 4 5 5 3 1 2 4 4 6 4 7 11 9 7 7 5 4 4 2 3 3 1 3 2 4 12 9 7 12 10 7 9 9 9 10 7 6 6 6 5 5 8 11 11 10 8 5 2 3
17 16 15 13 12 10 7 6 6 5 4 4 4 4 4 4 3 4 4 4 4 5 5 5 7 8 9 12 8 4 5 6 7 7 4 4 4 4 3 2 2 2 1 2 1 4 4 8 8 10 10 7 8 9 5 4 3 0 2 3 2 5 4 5 12 11 12 16 12 9 10 8 9 8 8 11 7 1 5 9 9 12 13 10 8 4 2 3
17 16 15 13 12 10 7 7 6 6 5 5 5 5 5 5 4 4 4 4 5 5 6 7 9 10 12 13 10 6 4 3 5 5 4 6 6 6 5 4 3 2 2 2 1 2 7 8 9 11 8 5 5 5 4 6 5 2 3 5 6 6 4 6 12 13 15 15 12 11 9 9 9 7 11 12 4 3 9 11 12 12 12 10 7 3 3 6
17 16 15 13 12 10 8 6 7 7 6 5 6 6 6 6 5 4 4 4 5 5 7 8 10 12 13 14 12 9 3 1 6 3 5 5 3 4 4 3 4 4 3 2 1 5 9 6 9 10 5 3 2 3 3 5 6 3 3 7 8 7 8 9 13 15 17 15 11 10 8 12 9 4 10 9 2 6 11 12 12 10 10 8 5 2 2 4
18 17 15 13 12 10 8 6 7 7 7 6 7 7 7 7 6 5 5 5 5 7 8 10 11 13 14 15 14 10 4 3 4 2 4 6 4 1 1 2 3 4 4 4 3 5 9 8 13 12 6 3 2 3 6 7 9 6 3 6 8 10 13 14 16 17 17 15 12 11 11 11 7 4 7 7 6 10 11 10 10 9 8 6 4 3 2 3
19 18 16 13 12 11 9 6 6 8 8 7 8 8 8 7 7 6 6 6 6 8 9 10 12 13 15 16 14 12 7 2 3 5 6 7 6 5 5 5 6 7 4 4 4 7 12 11 16 13 4 3 4 5 7 8 7 4 4 8 9 12 14 16 18 18 16 15 14 14 11 8 9 9 7 10 13 13 12 10 9 9 8 7 6 4 3 1
20 19 16 13 12 11 9 7 6 7 8 7 8 9 9 8 7 7 7 7 8 8 9 11 13 14 16 16 14 11 3 5 3 8 8 6 6 7 5 5 6 6 3 3 4 8 13 11 14 10 4 6 8 8 8 5 1 3 9 11 10 11 13 16 17 17 15 16 17 12 7 9 14 11 5 10 15 12 11 11 10 11 10 8 7 6 5 3
21 19 17 14 12 11 10 8 6 7 8 8 8 10 11 9 8 9 9 9 9 9 10 11 13 15 18 17 11 5 2 7 1 8 8 5 6 8 7 6 8 6 1 6 7 9 11 11 13 13 9 9 8 7 7 7 6 10 16 14 14 14 14 15 13 14 16 16 18 11 6 11 16 8 2 10 16 12 11 12 13 12 11 9 8 8 7 5
21 20 17 15 12 11 10 9 7 7 8 8 8 10 12 10 9 9 10 10 11 10 12 13 15 17 19 21 11 2 2 8 3 4 7 7 8 9 9 6 8 9 5 9 11 7 8 11 15 13 9 9 8 4 5 10 13 19 21 15 15 16 14 14 11 13 16 12 17 15 7 9 9 2 5 15 16 13 13 13 15 14 12 10 9 9 9 7
21 20 18 15 13 12 10 10 8 6 8 8 8 11 12 12 10 10 11 11 12 11 13 14 16 18 20 22 13 4 2 6 3 2 7 9 9 8 10 8 8 9 9 12 13 9 9 13 13 10 10 13 8 4 6 11 15 19 18 10 9 9 7 11 10 14 13 8 18 18 7 3 4 4 9 18 16 14 15 15 17 16 13 11 10 10 10 8
21 20 19 16 14 12 11 10 9 7 7 7 8 10 13 13 11 11 12 12 12 12 14 15 17 20 20 18 10 5 4 4 2 1 8 8 10 9 10 11 8 8 10 12 11 9 11 12 13 15 16 13 6 6 9 10 12 12 9 6 7 5 2 9 11 14 10 10 23 16 3 4 6 6 14 19 17 16 16 16 18 18 15 14 12 11 11 10
21 21 19 17 16 13 11 11 10 7 7 7 7 10 13 13 12 12 13 13 13 13 14 16 17 19 17 15 7 3 5 5 5 6 7 6 7 7 8 11 10 9 8 9 9 8 9 10 15 17 14 11 10 10 7 5 6 5 3 3 4 4 4 9 11 11 6 14 26 12 2 6 5 7 17 18 18 17 17 17 18 18 17 16 14 13 14 12
21 21 20 18 17 15 12 11 10 8 7 7 7 10 13 14 13 12 12 13 13 14 15 16 16 15 16 15 6 4 6 7 9 8 8 6 6 6 7 8 9 10 8 8 7 8 8 8 13 11 9 12 12 8 4 4 3 3 3 0 2 2 4 6 10 13 7 12 22 9 1 4 4 9 19 19 18 19 19 18 18 19 19 18 16 14 15 15
21 21 20 19 17 15 13 11 10 8 7 7 6 10 13 13 13 13 12 13 14 15 16 15 15 13 12 10 3 5 8 9 8 7 9 7 5 6 7 7 8 9 9 9 7 9 8 7 11 8 6 9 7 5 4 4 4 3 3 2 2 3 3 4 8 13 11 9 12 8 2 2 3 11 20 20 20 21 20 19 19 18 19 18 17 17 16 16
21 21 20 19 17 16 14 11 10 9 7 6 6 9 12 12 13 12 11 13 15 16 16 17 16 12 10 7 3 7 10 8 6 7 9 8 6 6 9 10 8 8 8 9 6 9 9 7 8 5 4 5 3 5 5 3 1 3 2 2 2 3 3 5 5 9 11 9 7 6 4 4 3 11 20 21 23 22 19 20 19 18 19 17 17 19 18 18
21 21 20 19 17 16 14 11 10 8 7 7 5 6 9 10 11 12 11 13 16 16 15 15 10 6 7 7 4 9 11 7 7 9 9 9 8 6 10 10 6 5 7 7 3 4 6 4 4 2 3 3 2 5 4 3 5 3 3 2 1 2 3 6 5 7 10 9 7 6 4 6 4 9 18 23 24 23 21 22 20 19 20 18 19 22 21 20
21 21 20 19 17 16 13 10 9 7 9 8 5 1 3 6 8 9 9 10 12 10 8 7 5 2 6 10 10 8 11 8 8 10 11 10 7 7 11 8 4 5 4 4 1 2 4 4 5 3 1 0 1 5 6 6 7 6 5 4 4 4 3 6 6 8 12 8 5 7 6 6 6 9 15 21 26 24 23 23 21 21 21 20 21 22 22 21
22 20 20 19 16 15 11 9 6 7 12 12 8 5 5 6 3 4 8 10 11 9 10 12 12 13 19 22 16 8 12 8 6 10 13 12 9 9 10 8 6 4 2 3 1 1 3 4 2 3 4 5 5 6 6 5 6 5 4 3 4 4 3 7 7 7 12 7 4 9 8 8 10 10 14 22 24 21 20 20 22 23 23 23 22 22 22 21
23 20 20 18 16 13 10 6 4 6 12 15 14 12 11 11 5 5 12 12 12 11 14 19 19 21 26 28 21 11 10 8 9 10 11 14 13 10 8 7 5 2 0 3 3 0 3 3 4 6 7 8 7 7 5 5 5 3 4 2 3 3 4 7 6 8 10 6 4 8 9 8 10 10 14 19 17 16 20 20 22 25 25 25 25 24 22 19
23 21 19 18 15 11 7 4 3 7 10 13 16 16 13 11 6 7 10 10 14 14 15 20 21 23 27 29 28 18 11 8 10 11 11 15 16 11 9 6 3 2 2 2 3 3 4 0 6 7 8 6 5 6 7 5 4 3 2 1 1 3 3 3 6 8 7 3 3 8 9 8 9 10 12 16 16 18 25 26 27 29 26 26 27 25 23 20
24 22 19 18 15 9 5 3 3 7 11 14 17 16 13 10 8 11 7 6 14 17 18 21 21 23 27 27 24 18 13 9 8 12 14 15 14 11 10 6 2 3 2 2 4 2 1 4 8 5 7 7 3 4 6 3 1 2 3 3 2 2 4 3 4 5 3 2 4 8 6 2 4 5 8 15 19 19 24 28 29 30 28 27 28 27 25 24
24 22 19 18 15 8 2 3 3 5 10 13 13 11 10 10 9 11 7 4 7 15 20 20 19 22 25 22 16 13 14 9 8 15 18 14 13 11 9 7 5 3 4 5 6 5 3 7 5 5 7 8 4 1 4 5 1 2 3 5 3 3 5 4 3 2 3 4 4 7 4 2 2 5 6 10 14 12 17 23 23 27 28 26 26 27 27 26
23 23 20 19 16 8 1 1 3 5 7 7 7 5 5 7 8 7 5 2 3 9 14 13 14 19 21 16 12 11 10 8 10 17 20 15 11 8 6 8 6 3 6 6 6 3 6 7 6 6 5 6 4 2 3 5 2 2 1 5 6 5 5 4 3 4 4 5 1 6 4 3 4 5 6 5 7 8 11 15 18 23 24 22 24 26 27 26
23 23 20 19 18 11 2 2 4 6 5 2 4 3 1 4 5 3 2 3 3 5 4 4 6 10 12 12 13 9 2 4 9 16 18 13 7 5 4 5 4 5 6 5 4 1 4 4 8 7 6 5 5 2 5 6 5 1 2 4 5 5 4 4 5 5 3 1 2 3 5 2 4 3 5 4 4 7 8 10 14 19 20 20 25 27 27 26
22 22 21 18 18 15 9 7 7 7 6 4 5 6 5 4 3 2 1 5 4 4 2 4 4 5 7 9 13 8 1 2 9 13 15 11 7 5 3 3 3 4 5 5 1 2 4 3 6 5 5 5 4 2 4 6 7 1 4 4 6 6 5 4 6 5 2 1 3 4 5 3 2 4 5 2 3 4 5 8 11 14 17 19 25 28 27 26
21 22 22 18 17 16 13 11 9 6 6 8 9 9 6 2 0 2 4 3 4 3 2 4 5 5 7 9 12 8 3 4 5 6 11 10 7 5 3 5 5 5 5 7 2 4 3 3 5 6 4 3 3 4 6 6 6 3 3 5 6 6 6 5 6 4 1 3 3 6 3 4 2 5 5 3 4 1 2 6 8 11 16 19 24 28 27 26
20 21 22 19 16 14 12 11 10 7 7 10 10 9 5 1 1 2 5 1 4 2 1 4 5 5 8 8 10 8 6 7 6 5 10 11 9 6 4 6 5 5 4 7 5 4 4 7 9 8 5 3 4 4 8 7 4 3 4 7 5 5 5 4 5 3 3 5 1 5 2 4 3 5 4 3 1 2 4 5 4 8 17 21 25 27 27 26
19 19 21 21 18 14 11 8 8 9 10 9 9 7 3 0 2 4 2 3 3 2 2 4 5 7 8 5 4 7 5 8 10 9 9 9 9 7 5 5 2 4 1 2 5 5 4 6 6 6 6 7 4 4 6 8 8 7 7 7 5 5 4 4 3 3 5 3 5 6 1 5 1 5 3 1 2 4 4 4 4 3 14 23 27 28 28 27
18 18 19 20 19 17 14 8 7 10 11 10 9 5 2 0 4 4 3 3 2 2 1 2 4 5 8 4 2 5 3 4 8 7 5 4 4 3 2 1 1 4 4 4 0 3 2 2 2 3 9 9 5 2 2 6 10 8 5 5 5 4 4 4 4 4 5 1 6 5 1 5 2 4 4 4 5 5 5 4 4 2 10 22 27 28 28 27
20 18 17 18 18 18 15 10 8 10 11 11 8 3 1 1 2 2 4 3 2 3 3 3 4 3 6 5 3 5 3 3 5 6 5 3 2 3 1 3 2 4 2 1 1 1 2 2 2 3 7 10 8 3 3 4 4 6 5 5 5 2 4 4 3 3 2 3 4 3 1 2 1 5 6 5 6 6 6 6 6 4 10 22 27 28 28 27
21 19 17 16 17 17 13 10 9 9 9 8 5 2 4 4 2 5 4 2 2 4 1 1 5 5 6 5 4 4 3 4 5 5 6 4 3 5 4 5 6 5 2 3 2 1 2 4 1 0 1 6 9 6 2 1 1 5 5 4 4 2 3 1 2 2 0 4 4 2 1 1 3 4 5 6 7 9 9 8 8 6 9 22 26 27 28 28
21 21 19 16 14 15 12 9 8 7 6 4 0 3 5 3 5 4 3 4 4 3 2 1 4 5 6 6 6 4 3 5 5 4 4 4 3 4 4 5 5 5 2 3 2 3 3 2 3 3 2 5 7 7 8 5 4 4 3 5 4 3 4 3 3 2 2 3 3 2 1 1 1 3 5 6 7 10 11 9 7 5 8 18 23 26 28 28
22 20 20 18 13 10 8 7 5 3 2 2 3 4 4 5 4 2 3 4 2 3 5 6 4 6 5 6 5 6 7 6 4 4 4 5 4 4 4 5 6 5 3 3 2 2 4 3 6 6 6 8 6 6 8 7 4 3 2 4 1 3 5 3 3 5 4 1 1 1 1 3 3 4 6 4 6 8 9 10 6 4 11 16 21 27 28 27
22 21 19 17 14 9 6 4 2 1 2 3 4 1 4 5 3 3 3 2 1 3 8 11 4 6 5 4 3 6 8 5 4 4 3 4 5 5 5 4 7 8 5 5 2 0 3 3 5 2 2 7 7 7 7 7 4 2 2 2 3 4 7 4 2 1 4 3 1 1 1 4 2 4 6 4 6 7 5 8 7 9 15 16 19 25 27 27
20 21 17 12 10 8 8 5 1 2 2 5 4 4 5 3 4 3 3 5 6 5 5 7 3 5 4 3 3 5 4 2 3 4 2 2 3 4 4 2 5 7 6 5 3 2 4 2 5 2 3 6 8 6 3 5 8 4 2 5 2 3 4 4 4 2 4 2 3 1 2 3 1 1 5 4 6 7 6 6 7 10 13 15 18 21 22 25
19 20 16 9 5 5 6 4 2 2 2 4 2 4 3 3 4 4 7 9 8 5 3 4 3 1 2 3 3 4 4 2 3 4 2 1 2 3 5 4 1 4 6 6 3 1 4 1 6 4 6 3 1 2 2 1 5 5 3 5 4 3 0 2 3 1 1 2 2 1 1 3 2 3 4 4 7 8 7 6 6 8 12 15 17 18 19 22
18 17 12 5 1 4 2 2 3 2 3 2 2 3 3 4 6 10 14 11 6 3 3 4 3 1 1 2 3 3 4 5 4 3 2 2 2 3 4 4 1 4 8 8 5 1 4 4 4 6 4 0 4 3 2 4 1 3 3 3 2 3 3 3 2 3 4 2 1 1 1 3 4 5 6 9 10 9 7 6 6 9 15 18 18 18 18 20
14 11 6 2 6 5 3 3 4 3 2 2 4 3 3 4 6 13 18 12 5 3 4 5 1 1 2 2 3 4 3 4 4 3 2 3 3 3 2 4 3 4 7 9 5 1 3 4 2 6 4 2 1 2 5 5 2 3 2 1 0 1 1 2 1 1 4 4 2 3 2 5 6 4 7 10 10 8 8 7 7 12 17 20 20 19 18 19
10 6 4 5 11 9 5 6 4 2 2 2 3 3 4 5 7 13 20 17 9 8 10 8 3 3 3 2 2 3 2 1 3 3 3 3 3 1 3 4 6 5 6 7 4 2 2 3 3 2 3 1 4 6 7 9 7 5 4 4 3 2 2 4 2 2 2 4 4 4 2 6 6 3 6 8 7 7 9 9 9 14 18 19 19 19 18 18
6 4 7 8 9 1 2 4 3 2 3 3 3 4 6 7 6 9 15 16 11 10 10 7 3 3 3 3 2 2 2 2 3 3 3 5 6 4 5 7 10 10 7 3 1 2 3 4 3 0 2 4 7 8 4 5 6 6 4 3 4 4 5 6 3 2 1 3 2 4 2 5 6 3 5 7 5 6 10 12 12 14 17 17 16 16 17 16
5 11 15 12 6 10 5 1 4 2 3 5 6 8 10 9 6 7 10 11 9 8 6 2 2 2 2 3 2 0 1 2 3 3 1 2 3 5 10 15 15 11 6 2 1 1 2 4 3 2 4 4 6 6 4 3 5 4 1 2 5 4 4 5 5 3 3 2 2 3 1 5 6 3 6 9 6 5 8 12 13 12 12 12 10 9 13 16
10 16 20 17 11 10 3 3 2 3 4 6 5 8 11 9 7 8 7 7 8 5 3 2 2 2 3 2 2 1 1 0 3 3 0 1 1 5 14 20 14 6 3 3 3 2 1 1 3 3 4 5 6 6 7 6 4 1 2 2 4 5 5 4 1 3 3 2 4 5 2 6 6 2 4 7 5 5 7 11 14 13 12 10 8 7 10 14
10 11 15 17 16 12 7 5 3 2 3 4 4 6 8 7 8 11 9 11 14 8 1 3 5 4 4 1 1 2 2 3 2 3 2 1 0 3 12 19 14 6 5 8 9 6 3 2 4 5 3 1 1 1 2 3 3 3 1 0 2 6 8 5 1 4 2 1 4 5 4 4 4 1 5 6 6 6 6 10 12 11 12 11 9 9 10 13
6 4 7 11 13 11 11 12 7 4 3 2 4 5 4 3 7 12 11 12 16 12 5 3 4 4 5 1 1 2 2 3 2 1 1 1 1 1 7 18 17 11 12 14 13 8 3 2 3 6 6 5 5 6 5 2 1 5 3 2 1 6 7 6 4 3 4 3 3 4 6 5 3 4 7 6 7 7 7 8 10 12 13 13 11 11 11 12
3 2 2 4 6 5 7 8 4 2 3 2 2 4 5 4 5 9 9 7 9 7 2 2 1 1 3 3 2 2 3 2 0 1 2 1 1 1 6 13 13 16 17 11 8 6 5 2 2 6 6 6 7 7 5 1 3 4 4 5 3 5 5 6 5 5 6 7 3 6 6 9 8 7 8 8 7 7 7 10 14 15 15 14 12 12 12 12
3 5 4 4 4 3 2 4 5 4 4 4 1 3 6 7 5 5 6 9 11 7 1 2 3 2 3 1 1 2 4 4 2 0 1 1 3 4 4 4 4 12 14 6 2 5 6 2 3 4 2 4 4 2 2 4 3 2 3 5 6 1 3 4 4 6 7 8 5 7 8 10 8 8 9 10 11 11 13 17 18 16 16 15 12 12 11 10
7 8 8 8 5 5 7 10 9 5 4 3 2 3 4 6 7 6 5 5 9 6 1 1 5 6 5 1 2 1 2 3 3 3 2 2 2 2 2 2 1 5 7 5 2 4 5 1 3 3 1 4 4 4 5 6 4 3 3 3 7 5 0 3 4 4 5 5 5 7 10 9 7 7 8 11 17 19 18 20 19 16 16 15 13 11 10 8
7 6 8 11 9 11 13 12 7 4 3 3 3 4 4 4 7 7 6 5 6 6 4 3 5 8 8 3 2 2 1 2 2 3 1 2 2 0 2 3 2 2 4 3 1 3 5 2 4 3 4 5 6 5 6 5 4 3 4 4 6 8 5 4 3 3 6 4 1 5 9 6 3 3 6 11 18 19 16 18 18 16 16 15 12 11 10 8
13 10 11 10 7 8 10 8 4 3 3 2 2 3 3 4 8 11 10 9 5 2 5 6 7 7 7 5 2 3 2 3 3 4 3 2 1 4 4 4 6 4 2 2 1 3 5 2 1 5 5 5 5 6 6 5 6 5 4 4 6 7 5 4 2 2 6 5 3 6 8 5 2 5 8 11 16 17 15 17 16 13 13 14 11 10 8 7
12 13 13 9 5 5 7 5 3 3 3 2 3 3 4 7 12 14 9 6 4 9 11 8 7 6 5 7 4 2 2 2 1 6 6 3 2 6 8 10 12 9 4 2 2 2 5 4 2 4 4 4 5 4 4 4 7 4 5 3 4 6 6 5 5 4 2 6 6 5 6 6 5 9 8 7 10 13 14 17 17 15 14 12 10 8 6 4
Wind_Direction
3 5 7 9 9 7 8 12 8 351 338 340 344 351 5 17 20 26 30 33 37 36 42 31 346 292 276 266 264 260 258 262 266 267 267 277 278 258 269 273 272 269 277 320 322 333 19 115 55 58 106 122 132 103 82 98 122 114 81 91 122 163 193 196 162 149 148 140 137 151 155 132 117 131 122 115 108 107 103 105 113 120 124 122 116 108 102 103
3 3 4 6 6 4 1 4 4 347 331 323 324 332 341 359 7 13 23 31 37 38 34 19 4 331 313 301 287 275 268 269 271 274 278 284 268 255 251 249 256 254 266 313 310 338 49 119 357 62 89 82 73 82 93 72 67 83 97 99 167 198 201 175 150 138 131 134 139 152 161 148 131 140 135 118 110 111 99 95 116 123 122 120 118 118 127 158
1 2 2 4 4 2 353 352 353 341 322 306 300 307 315 334 345 359 14 21 27 27 18 7 359 350 354 346 323 300 290 289 280 283 307 330 249 231 219 226 238 249 279 306 283 350 76 116 76 87 93 77 61 73 88 60 49 63 102 87 223 184 106 131 148 144 140 142 138 140 151 145 141 144 138 135 125 109 122 133 131 134 132 127 126 132 137 210
359 2 1 1 2 359 348 341 340 332 314 291 282 284 292 307 320 342 357 7 11 10 4 358 358 1 3 357 353 345 323 316 292 295 357 62 95 100 122 144 180 234 330 167 226 356 138 137 84 88 92 67 57 69 69 47 69 125 104 134 172 125 89 131 151 143 139 146 141 132 136 142 152 151 146 140 121 86 176 164 153 147 141 136 140 149 38 46
356 0 1 360 359 357 346 332 327 323 306 281 268 267 275 290 302 322 337 355 355 353 348 351 358 358 359 2 9 2 355 10 315 309 72 87 97 108 122 122 149 167 118 151 67 76 158 149 92 91 82 57 58 61 33 41 86 81 55 122 131 111 108 144 150 145 142 144 137 132 135 151 159 156 160 153 133 197 182 162 151 144 139 141 146 139 45 47
353 357 1 360 356 354 346 326 319 315 301 278 261 256 262 275 288 302 313 332 339 342 340 348 357 355 357 360 356 350 10 67 309 295 106 74 80 121 135 153 185 181 171 180 102 134 158 144 99 97 74 60 82 83 58 51 89 87 61 122 135 125 126 138 144 145 143 140 140 146 147 153 152 146 169 169 171 174 162 151 146 140 140 147 150 122 58 48
352 354 359 0 356 350 345 326 314 310 300 278 256 249 252 264 277 287 299 315 329 335 338 348 351 349 351 349 347 342 316 279 280 173 85 38 25 330 247 242 232 227 228 237 250 168 152 120 107 112 97 92 108 99 96 90 105 110 124 154 151 133 132 138 143 145 146 146 151 153 147 155 151 129 159 156 146 157 151 150 150 144 152 162 169 157 99 61
352 353 355 359 357 348 342 327 310 307 300 278 255 245 243 254 270 280 292 304 317 328 338 346 345 346 346 344 344 333 307 260 124 97 54 46 37 343 304 299 300 287 266 247 253 158 139 116 117 123 109 129 146 126 108 94 94 101 144 154 141 135 139 142 147 152 152 149 150 149 141 147 147 134 137 136 140 150 151 156 160 159 173 180 177 171 157 138
354 352 352 357 357 348 339 328 308 305 302 281 257 243 238 245 261 276 286 296 309 321 334 338 338 341 340 340 340 331 296 165 84 42 38 46 41 13 348 353 354 316 284 193 207 151 133 123 133 138 141 153 140 144 149 121 97 144 138 139 131 136 142 143 151 156 153 150 147 141 118 125 140 133 122 149 150 152 156 164 173 176 185 189 190 188 180 194
355 353 351 354 357 349 337 327 308 302 304 287 259 242 237 238 251 270 279 291 301 312 324 329 334 337 338 338 336 338 151 173 120 35 56 64 60 50 42 51 57 40 83 147 156 161 143 114 126 136 136 148 141 152 165 142 133 123 122 127 130 138 144 149 162 155 144 150 152 144 121 140 148 139 157 173 162 162 170 175 181 186 191 194 202 201 196 209
357 354 351 351 355 351 337 326 311 299 304 291 262 242 235 234 244 263 274 283 293 308 317 322 331 335 337 333 321 308 169 190 205 44 86 78 74 65 52 63 66 61 86 108 101 134 151 120 128 137 131 143 143 123 121 132 129 121 120 118 125 134 141 153 170 154 141 157 163 144 115 146 156 169 193 174 167 175 186 188 192 196 199 200 203 203 201 208
359 356 351 350 353 351 339 326 312 296 302 296 266 242 233 234 239 257 270 279 290 305 314 322 331 334 335 328 316 324 322 201 238 31 107 80 81 82 62 80 79 70 85 88 79 83 114 130 139 135 136 145 138 92 112 128 122 124 126 116 126 124 136 168 175 163 153 165 160 135 84 169 208 261 182 169 174 187 197 200 200 204 211 208 201 201 201 203
0 357 352 348 350 351 341 326 314 299 299 298 270 240 231 233 236 252 265 276 291 302 312 322 329 332 331 323 318 302 275 182 217 150 127 92 96 103 79 87 92 89 95 88 82 82 98 123 124 114 128 139 122 119 130 114 106 122 120 102 131 108 155 189 175 169 162 155 158 139 66 237 247 227 177 172 180 193 206 211 208 210 218 214 205 207 202 198
0 357 353 347 347 349 342 327 316 302 298 298 272 239 229 231 235 249 263 276 291 300 311 320 325 332 326 316 321 243 225 165 182 182 148 117 112 107 89 92 87 88 96 93 91 92 97 114 114 104 107 120 126 127 112 67 85 113 90 68 123 120 201 194 171 167 151 161 166 148 38 228 257 208 180 178 184 196 212 218 215 216 221 218 211 212 206 200
359 357 353 348 346 347 343 329 316 308 305 299 270 239 228 230 237 246 262 276 289 299 307 315 319 327 323 312 308 199 206 188 197 190 161 146 127 118 115 115 102 91 99 114 103 91 99 113 114 99 87 113 123 113 57 16 37 58 107 58 332 124 192 195 173 173 154 168 175 160 35 232 266 202 186 182 187 199 214 220 220 223 226 221 215 214 207 203
356 357 353 348 345 346 343 329 317 315 312 304 275 241 227 230 240 248 265 279 290 297 303 310 313 318 317 309 274 220 209 184 187 171 165 174 151 133 137 135 118 103 101 110 93 80 93 100 102 90 84 109 104 88 64 33 6 3 109 191 262 143 180 188 183 188 164 157 185 181 156 221 265 203 191 186 191 201 213 221 222 223 223 213 208 208 201 198
354 356 352 348 346 345 342 330 320 322 323 317 284 239 230 236 242 249 265 281 288 293 300 301 302 306 292 270 232 227 206 171 169 161 164 183 171 147 155 147 116 107 107 106 90 78 86 91 105 90 64 90 79 93 76 47 304 307 77 148 216 158 168 169 194 212 175 155 187 177 154 212 224 193 192 193 196 202 212 221 224 220 213 205 202 201 198 197
352 354 352 349 347 345 342 330 326 340 349 335 310 248 236 243 251 260 269 281 286 288 297 289 280 303 277 253 258 229 203 170 169 170 171 175 162 161 177 165 120 120 122 116 100 73 85 82 105 88 31 43 49 99 109 172 179 200 165 144 190 176 180 177 191 214 185 172 176 158 172 226 214 184 193 198 199 203 210 217 222 220 210 206 204 201 201 202
352 354 352 348 348 346 342 333 335 8 19 4 346 283 237 261 265 271 273 278 284 281 286 268 225 245 267 281 295 237 195 165 156 172 181 177 166 186 194 184 159 157 128 108 43 48 105 73 71 90 70 170 190 144 159 185 169 166 176 154 147 167 198 197 199 192 178 172 164 165 184 204 195 192 197 201 202 204 211 214 220 221 211 205 205 204 205 207
354 354 350 348 350 348 344 338 341 19 29 33 40 66 51 7 330 302 302 284 277 281 280 268 262 271 273 286 292 219 182 177 169 181 195 202 195 185 186 179 161 147 110 129 137 24 100 81 100 180 201 200 193 178 165 161 157 151 152 157 170 173 223 217 213 189 170 163 185 182 183 188 190 199 203 202 202 205 209 211 213 215 211 207 207 205 206 208
356 354 350 349 352 351 348 344 341 10 25 41 50 59 51 28 27 333 324 303 274 274 281 273 271 275 272 279 282 234 192 206 205 199 208 207 194 185 190 180 135 97 236 147 142 26 83 100 197 206 206 206 190 173 151 141 159 148 135 178 209 189 212 210 192 178 168 159 198 178 169 190 195 201 206 201 200 206 206 203 205 209 209 209 209 205 204 204
357 355 350 348 353 355 352 356 354 7 29 53 55 53 45 29 13 329 325 306 279 270 275 273 273 277 271 275 280 259 217 209 219 223 213 194 188 188 184 169 122 173 218 81 75 8 24 162 231 211 190 199 190 160 144 148 170 152 130 130 180 161 159 174 166 171 168 145 189 175 167 196 208 205 207 202 201 207 206 202 203 205 206 207 206 203 200 195
355 357 352 346 355 359 349 14 8 18 50 65 56 44 29 13 350 330 313 283 289 284 277 273 273 275 270 275 280 256 219 205 208 209 201 193 197 190 169 158 145 165 163 107 121 86 25 243 238 203 163 171 183 150 127 107 106 144 136 107 114 124 99 149 190 169 144 89 161 166 160 202 236 224 222 214 211 212 209 206 205 204 205 207 204 201 196 191
353 357 355 346 354 4 353 17 10 32 64 66 53 49 31 5 345 340 322 262 288 287 281 278 276 273 268 273 276 238 216 220 208 198 199 203 200 186 178 169 136 151 200 168 147 153 230 248 222 148 149 160 159 141 109 93 36 254 164 130 131 117 118 163 200 111 49 14 112 129 92 354 260 228 243 232 224 223 210 205 206 206 206 206 201 198 197 196
352 354 357 349 350 0 4 298 359 39 62 58 44 67 60 1 342 352 345 305 282 280 283 279 268 265 261 259 249 223 216 236 223 200 200 207 196 173 178 171 144 202 211 158 131 167 255 245 174 139 152 150 134 180 174 136 126 305 228 156 150 125 116 132 104 80 43 3 60 110 91 298 280 235 240 251 233 226 209 203 204 204 205 202 194 192 195 198
350 350 355 354 347 349 2 291 341 15 20 9 5 4 354 340 341 349 23 23 318 273 274 246 230 244 242 224 211 203 214 239 204 193 196 207 205 153 146 173 173 209 196 153 132 182 255 199 147 156 172 135 91 132 191 153 113 353 236 158 140 110 91 102 95 87 85 288 267 99 120 226 303 267 253 277 222 202 196 205 210 205 204 199 190 189 193 196
348 346 349 354 348 345 352 344 331 342 342 310 321 329 308 323 341 253 76 34 307 247 196 203 195 203 213 203 195 178 59 224 180 189 199 199 205 186 181 217 202 200 170 125 102 234 219 162 120 147 147 105 89 131 196 148 107 227 242 120 117 109 93 101 92 91 155 212 327 9 100 128 311 263 268 318 129 154 175 200 213 205 200 194 187 187 193 197
345 344 342 348 349 342 340 337 326 327 324 302 313 329 321 336 296 199 90 55 264 232 157 203 189 199 207 192 189 185 228 218 166 197 206 194 201 190 201 220 196 208 169 123 153 247 203 162 138 135 109 110 182 193 180 136 105 219 217 102 114 112 98 100 89 87 88 69 357 320 45 89 287 275 303 12 105 117 224 199 206 198 190 186 184 187 195 200
340 343 339 339 344 338 330 330 323 319 310 296 304 320 328 357 148 98 83 97 253 254 193 182 170 206 204 177 188 207 220 203 191 214 205 202 212 197 223 234 193 194 183 136 162 223 231 195 163 134 127 190 222 195 162 137 117 175 125 88 81 74 76 77 83 89 41 61 244 281 48 98 274 288 324 4 112 247 261 238 227 189 181 183 185 190 197 199
333 339 338 333 335 333 325 325 313 308 314 311 305 307 314 309 98 75 77 243 255 246 167 162 181 196 186 162 206 224 208 203 217 220 210 214 215 209 237 251 160 131 107 74 153 199 235 198 160 127 150 177 190 177 160 144 134 119 89 78 65 39 39 44 53 79 56 24 264 262 118 107 317 289 274 252 218 216 223 254 272 178 175 182 186 192 197 198
326 332 334 330 328 325 322 322 307 301 308 314 314 306 267 207 72 95 196 241 271 259 138 175 219 180 167 158 197 224 209 215 219 205 213 234 213 224 303 310 21 56 38 11 87 223 250 155 177 171 152 139 124 114 89 116 125 110 85 90 78 19 10 20 359 38 71 290 267 256 162 98 108 268 255 246 259 228 190 210 242 208 171 176 185 194 197 197
321 323 326 325 319 315 315 314 304 298 299 306 315 314 136 81 34 178 226 320 344 232 195 191 219 182 171 171 193 223 207 222 220 185 196 206 177 216 199 177 168 55 31 280 20 313 239 234 241 189 149 130 116 87 36 43 74 89 100 93 75 25 12 16 338 13 87 236 262 239 173 85 192 249 253 260 270 239 207 207 226 224 167 172 186 194 195 197
318 318 317 317 313 311 311 306 297 295 300 301 304 343 83 94 228 222 231 283 235 232 261 172 210 188 159 159 214 228 196 236 236 197 195 176 171 225 243 216 168 108 174 202 97 103 280 311 301 146 239 138 128 126 136 258 118 126 139 126 107 97 64 7 281 346 273 243 263 244 169 17 295 275 245 241 246 230 226 224 238 253 181 178 190 194 194 197
314 317 313 309 312 311 305 299 291 293 299 280 220 64 92 144 236 230 224 241 249 279 322 273 219 186 163 180 208 195 185 255 241 197 194 152 158 237 267 255 188 125 120 145 138 159 138 312 215 191 230 156 151 171 172 167 153 167 176 134 132 145 140 180 211 183 204 248 282 318 61 156 222 272 239 231 250 242 236 237 245 252 186 180 191 193 192 195
310 313 311 307 313 312 297 293 293 297 289 182 96 79 147 204 243 221 228 243 262 302 303 291 235 177 195 218 217 187 192 233 226 198 201 159 173 210 216 233 198 152 110 126 222 173 128 227 227 208 190 163 177 202 163 128 128 207 163 104 153 185 143 137 173 172 166 154 303 317 222 209 202 268 272 263 281 268 251 258 261 186 163 165 178 188 191 195
308 308 308 305 305 292 255 263 310 260 211 136 97 119 201 215 217 194 240 272 314 322 324 315 264 171 200 238 248 218 202 210 193 191 224 188 195 211 207 218 180 158 143 143 194 191 111 239 248 229 195 185 196 199 161 138 152 191 128 156 232 160 121 107 130 89 79 101 268 236 242 298 327 305 302 311 293 287 283 279 260 182 166 160 170 184 191 195
313 311 313 313 307 274 223 203 131 189 181 109 121 218 218 224 224 213 293 322 326 331 340 322 274 169 187 205 239 237 198 210 200 189 247 237 227 226 192 180 151 153 162 149 171 200 134 257 276 169 168 222 217 202 182 147 143 130 176 196 180 84 85 94 113 18 45 113 272 268 195 274 348 286 299 304 271 270 277 262 223 186 176 168 170 181 191 197
323 318 319 329 321 258 203 173 150 176 109 92 165 234 213 233 268 297 314 319 327 338 343 298 261 172 166 186 243 242 173 196 223 193 223 235 240 221 156 135 104 150 160 135 115 177 121 48 296 228 178 227 292 127 312 298 140 133 178 174 120 96 274 74 113 158 111 154 281 320 225 232 194 220 251 233 228 240 249 229 195 188 187 179 174 180 190 197
331 324 323 343 258 232 192 126 169 162 77 102 212 251 234 245 278 291 296 302 303 298 283 253 229 26 326 205 254 267 177 193 211 185 186 178 220 247 161 141 170 166 147 124 114 167 107 98 287 274 224 246 28 86 209 279 310 83 110 163 122 125 160 140 143 155 138 154 183 107 301 262 228 216 204 208 218 222 216 198 190 196 191 186 184 185 192 198
334 327 315 114 141 163 169 168 176 148 99 187 206 236 270 279 283 284 289 293 282 255 251 243 229 11 282 252 289 288 214 197 202 187 199 182 184 263 241 148 144 142 114 95 97 110 66 100 207 291 318 60 53 192 179 186 172 90 98 212 351 53 110 111 106 139 128 138 149 142 203 263 252 211 195 211 214 209 205 193 192 201 196 195 194 192 198 203
336 324 270 168 140 146 181 199 195 154 173 227 219 230 273 280 276 285 292 293 284 259 247 241 226 193 206 239 289 280 277 239 205 199 220 198 152 198 260 199 156 127 89 71 76 122 94 112 172 292 349 52 243 238 191 173 166 142 153 189 170 140 103 80 36 303 110 127 155 151 180 261 258 196 197 220 210 206 212 194 189 205 206 202 200 199 202 204
327 265 241 180 149 120 282 218 242 205 194 242 247 250 271 271 269 283 292 297 297 274 252 232 210 198 195 205 219 253 307 293 234 221 211 189 172 175 209 178 137 113 101 95 146 188 131 105 102 289 257 240 260 265 225 164 145 133 143 161 144 128 120 120 159 244 76 96 136 118 119 266 264 205 191 216 208 197 197 179 175 201 209 205 202 203 203 204
304 265 254 221 231 311 323 258 304 292 238 276 278 274 276 269 272 285 288 294 294 282 273 238 207 228 212 192 176 178 329 308 278 266 217 176 190 169 151 139 121 102 100 120 240 261 78 77 65 322 297 299 307 311 328 36 80 100 104 130 142 150 138 144 169 170 132 138 132 96 97 266 278 254 192 202 196 170 174 163 153 165 181 184 184 189 199 205
307 288 270 240 246 296 293 176 267 263 264 289 287 286 286 275 274 278 282 287 277 276 311 293 262 263 248 184 133 215 182 105 298 290 311 152 190 143 135 133 126 107 117 165 181 163 121 83 84 57 7 349 346 347 348 357 27 130 231 231 175 143 99 103 132 80 92 185 139 119 196 255 282 296 169 180 159 125 149 153 145 146 155 161 160 158 181 198
318 298 279 258 255 271 259 212 201 220 274 306 301 291 289 283 273 266 270 279 271 260 225 271 289 299 276 233 82 273 183 155 246 302 330 294 198 111 124 127 123 107 131 154 145 130 140 150 112 109 114 138 205 299 322 319 311 279 246 351 165 146 127 139 138 79 102 199 113 127 191 247 288 341 135 149 130 123 159 158 148 152 158 164 166 160 170 187
329 299 291 285 272 264 253 246 242 239 252 293 299 278 257 252 280 285 286 275 261 246 199 234 290 320 306 329 67 284 228 185 215 285 307 271 323 347 125 122 119 126 141 142 134 116 91 81 110 135 155 171 186 220 235 189 316 289 288 34 213 196 156 122 108 124 161 149 130 187 177 153 197 182 151 158 148 148 175 166 152 157 162 167 172 174 182 191
313 264 276 314 303 279 256 257 268 266 261 290 281 274 284 287 302 307 302 283 272 266 211 236 287 1 296 325 0 280 274 297 75 104 289 268 73 40 118 116 121 138 139 132 130 115 82 54 151 140 163 195 192 215 250 37 39 303 309 359 324 225 171 116 133 179 149 119 166 235 176 151 191 195 166 173 171 160 176 171 162 164 166 170 175 178 186 194
245 265 296 339 313 264 263 316 347 345 318 328 276 260 289 284 278 290 292 306 318 323 352 330 330 277 236 239 36 277 295 336 12 99 299 24 62 51 70 68 109 142 134 97 61 113 102 133 192 145 183 237 212 233 335 37 38 302 310 1 18 23 189 161 179 187 149 140 192 215 169 164 191 195 180 181 176 174 179 172 165 165 167 171 175 182 189 196
254 269 301 332 315 284 298 307 318 322 313 319 279 258 278 272 267 264 258 301 322 319 253 266 294 290 275 222 137 201 302 345 326 299 312 65 63 65 87 5 355 130 119 76 44 102 97 179 221 134 50 317 315 339 24 44 33 356 333 1 48 56 117 170 172 175 134 137 169 157 157 176 193 191 194 190 180 175 171 166 165 167 169 169 173 183 192 198
252 270 318 333 318 302 300 294 298 306 295 298 273 262 268 269 279 288 280 272 291 312 338 331 298 299 299 293 140 140 150 139 193 261 252 63 21 85 160 178 183 102 70 71 55 73 90 200 238 93 55 322 316 359 23 37 67 62 347 353 58 61 40 55 94 105 87 84 88 122 142 185 222 153 153 163 161 155 150 158 169 172 169 168 176 187 196 206
249 270 300 312 304 296 296 291 278 262 274 280 254 273 287 291 319 332 313 274 257 343 12 351 330 325 322 331 46 139 161 155 198 255 234 142 223 235 222 187 156 127 76 103 95 66 87 133 271 64 57 289 308 16 1 0 58 53 340 352 67 74 60 51 61 124 124 131 118 104 134 184 199 115 116 131 137 136 141 155 161 161 158 159 165 172 181 198
258 274 282 280 272 276 288 306 301 260 261 225 230 304 323 315 334 344 326 290 329 10 6 353 347 352 334 320 308 212 172 116 335 314 327 15 344 296 264 209 171 151 154 131 70 101 118 110 108 87 85 274 296 4 359 12 40 6 287 224 123 103 100 73 23 357 92 133 137 149 186 201 161 126 118 118 129 135 142 147 147 145 144 144 143 139 142 167